Hourly Data Report for October 23, 2015

All times are specified in Local Standard Time (LST). Add 1 hour to adjust for Daylight Saving Time where and when it is observed.

GJOA HAVEN A
NUNAVUT

68°38'08.000" N
95°51'01.000" W
46.90 m
2302337
71597
YHK

Download Data

Hourly Data (October 2015)
Hourly Data Report for October 23, 2015
Temp Definition
°C
Dew Point Temp Definition
°C
Rel Hum Definition
%
Wind Dir Definition
10's deg

Wind Spd Definition
km/h
Visibility Definition
km
Stn Press Definition
kPa
Hmdx Definition


Wind Chill Definition


Weather Definition


TIME
00:00 Legend Double Dagger -11.5 -12.6 92 5 18 16.1 100.12   -19 LegendNANA
01:00 Legend Double Dagger -11.8 -13.0 91 5 17 16.1 100.08   -19 Snow
02:00 Legend Double Dagger -12.6 -13.9 90 5 22 16.1 100.08   -22 LegendNANA
03:00 Legend Double Dagger -12.6 -13.6 92 5 30 16.1 100.06   -23 Snow
04:00 Legend Double Dagger -12.4 -13.4 92 4 28 16.1 100.03   -22 Snow
05:00 Legend Double Dagger -12.8 -14.1 90 2 28 16.1 100.03   -23 LegendNANA
06:00 Legend Double Dagger -12.6 -13.8 91 2 34 14.5 100.01   -23 Snow
07:00 Legend Double Dagger -12.4 -13.7 90 2 34 16.1 100.02   -23 Snow
08:00 Legend Double Dagger -13.5 -14.9 89 1 45 2.4 100.01   -26 Snow,Blowing Snow
09:00 Legend Double Dagger -15.5 -17.0 89 36 37 6.4 100.04   -28 Fog
10:00 Legend Double Dagger -14.6 -16.2 88 1 39 11.3 100.09   -27 Snow
11:00 Legend Double Dagger -13.1 -15.0 86 2 41 12.9 100.14   -25 LegendNANA
12:00 Legend Double Dagger -13.0 -14.7 87 1 41 6.4 100.19   -25 Fog
13:00 Legend Double Dagger -14.5 -16.4 86 1 41 9.7 100.28   -27 Fog
14:00 Legend Double Dagger -14.7 -16.6 86 1 46 6.4 100.31   -28 Fog
15:00 Legend Double Dagger -15.3 -16.7 89 36 39 3.6 100.43   -28 Fog
16:00 Legend Double Dagger -15.9 -17.5 88 36 43 4.8 100.49   -29 Fog
17:00 Legend Double Dagger -16.4 -18.1 87 36 35 12.9 100.58   -29 LegendNANA
18:00 Legend Double Dagger -16.1 -17.8 87 1 35 3.2 100.63   -28 Fog
19:00 Legend Double Dagger -16.7 -18.4 87 35 41 2.4 100.67   -30 Blowing Snow
20:00 Legend Double Dagger -17.5 -19.5 85 35 32 11.3 100.72   -30 LegendNANA
21:00 Legend Double Dagger -17.9 -19.7 86 35 32 14.5 100.73   -30 LegendNANA
22:00 Legend Double Dagger -18.0 -19.8 86 34 35 6.4 100.74   -31 Fog
23:00 Legend Double Dagger -16.8 -18.5 87 34 26 11.3 100.75   -28 Snow

Notes on Data Quality.

Legend

  • E = Estimated
  • M = Missing
  • NA = Not Available
  • ‡ = Partner data that is not subject to review by the National Climate Archives
Date modified: